Regional Weather Roundup
Issued by NWS Newport/Morehead, NC

Current Version | Previous Version | Text Only | Print | Product List | Glossary On
Versions: 1 2 3 4 5 6 7 8 9 10 11 12 13 14 15 16 17 18 19 20 21 22 23 24 25 26 27 28 29 30 31 32 33 34 35 36 37 38 39 40 41 42 43 44 45 46 47 48 49 50
000 ASUS42 KMHX 242225 RWRMHX WEATHER ROUNDUP FOR EASTERN NORTH CAROLINA NATIONAL WEATHER SERVICE NEWPORT/MOREHEAD CITY NC 600 PM EDT SUN MAY 24 2015 NOTE: "FAIR" INDICATES FEW OR NO CLOUDS BELOW 12,000 FEET WITH NO SIGNIFICANT WEATHER AND/OR OBSTRUCTIONS TO VISIBILITY NCZ015>017-031-032-045>047-102-103-242300- NORTH COAST CITY SKY/WX TMP DP RH WIND PRES REMARKS EDENTON SUNNY 77 61 57 E6 30.32F ELIZABETH CITY SUNNY 74 58 57 SE12 30.33F KITTY HAWK CLEAR 72 56 55 SE8 30.34F MANTEO SUNNY 73 53 49 S9 30.35F $$ NCZ045>047-081-094-103-104-242300- CENTRAL COAST CITY SKY/WX TMP DP RH WIND PRES REMARKS FRISCO SUNNY 75 53 46 SE6 30.36F SWANQUARTER N/A 77 N/A N/A SE10 30.30F $$ NCZ095-097-098-100-101-242300- SOUTHERN COAST CITY SKY/WX TMP DP RH WIND PRES REMARKS BEAUFORT SUNNY 77 59 53 SE9 30.34F CEDAR ISLAND N/A 75 N/A N/A E8G15 30.39S JACKSONVILLE SUNNY 77 57 50 S9 30.34F PINEY ISLAND CLEAR N/A N/A N/A SE12 30.34F WILMINGTON MOSUNNY 77 57 50 SE8 30.34F $$ NCZ011>013-027>030-043-044-078>080-089-090>093-098-242300- COASTAL PLAIN CITY SKY/WX TMP DP RH WIND PRES REMARKS AHOSKIE SUNNY 78 55 44 S5 30.31F CLINTON MOSUNNY 81 58 45 S6 30.32F ELIZABETHTOWN MOSUNNY 80 55 42 SE7 30.31F GOLDSBORO NOT AVBL GREENVILLE MOSUNNY 81 55 41 SE8 30.32S HAVELOCK SUNNY 76 55 48 SE8 30.35F KENANSVILLE SUNNY 78 53 42 SE6 30.34S KINSTON NOT AVBL NEW BERN MOSUNNY 78 57 48 SE8 30.34F RICHLANDS SUNNY 79 54 41 SE7 30.34S ROCKY MOUNT SUNNY 81 54 39 S6 30.31F WASHINGTON SUNNY 78 53 42 S9 30.33S WHITEVILLE MOSUNNY 79 56 44 SE8 30.32F $$ AMZ130-135-150-152-154-156-158-170-250-252-270-ANZ085-086-088-633-658-670-242300- MARINE OBSERVATIONS STATION/POSITION TIME TEMP WIND PRES WAVE SWELL AIR SEA DIR/SP/G HT/PER HT/PER (UTC) (F) (DEG/KT/KT) (MB) (FT/S) (FT/S) CHESAPEAKE LIGHT 2200 64 160/ 21/ 22 1027.1 64 E VA BEACH 2150 64 63 150/ 8/ 8 1027.7 1/ 6 2/ 6 DUCK 2200 68 64 140/ 13/ 14 1026.4 2 E DUCK 2111 65 N/A 2/ 8 OREGON INLET 2200 70 72 110/ 8/ 11 1027.8 13E OREGON INLT 2200 67 N/A 2/ 6 HATTERAS CG 2200 74 74 110/ 4/ 6 1027.5 DIAMOND BUOY 2150 73 78 30/ 6/ 8 1028.3 2/ 7 2/ 7 CAPE LOOKOUT 2200 74 110/ 8/ 9 1027.4 BEAUFORT LAB 2200 74 75 110/ 10/ 12 1026.8 27 SE WRIGHTSVLE 2200 72 77 110/ 8/ 10 N/A 5 SE WRIGHTSVLE 2108 75 77 130/ 8/ 12 1027.9 225 S CAPE HAT 2150 72 74 80/ 16/ 17 1026.7 5/ 7 2/ 9 41 SE CHARLESTON 2150 76 75 90/ 16/ 21 1025.5 5/ 5 2/13 $$

USA.gov is the U.S. government's official web portal to all federal, state and local government web resources and services.